Simultaneous Nadir Overpasses (SNOs) Predictions

Prediction of SNOs between GOES-15 and NPP Satellite Orbit:

Table of predicted SNOs for the next 14.0 days since TLE Epoch: 8/17/2024
Index Date Time (GOES-15) GOES-15 Lat,Lon NPP Lat,Lon Distance(km) Time Diff (sec)
1 08/17/2024 21:27:12 0.42, 61.75 0.83, 59.86 214.65 80
2 08/18/2024 21:05:47 0.40, 61.74 -0.20, 64.39 302.63 80
3 08/20/2024 09:27:44 -0.42, 61.65 -0.98, 59.08 292.90 80
4 08/21/2024 09:11:39 -0.41, 61.64 0.06, 63.61 225.19 80
5 08/22/2024 21:33:26 0.42, 61.67 1.15, 58.35 378.69 80
6 08/23/2024 21:12:00 0.41, 61.67 0.16, 62.89 138.52 80
7 08/25/2024 09:33:56 -0.42, 61.60 -1.32, 57.58 458.76 80
8 08/26/2024 09:17:51 -0.41, 61.59 -0.32, 62.11 58.83 80
9 08/28/2024 21:20:53 0.41, 61.63 0.44, 61.37 28.58 80
10 08/29/2024 20:59:27 0.40, 61.63 -0.57, 65.91 488.14 80
